User: anonymous   Login
Location: Allonne
(49.4086°N, 2.1143°E)
Time: 18:16:49
(UTC+00:00)
Language:

Cosmos 1892 Rocket - Orbit

View from above orbital plane
View from above orbital plane
View from above satellite
View from above satellite

Ground track
Ground track

The orbit data is extracted from the following two-line orbital elements,

1 18422U 87088B   24141.50969024  .00001281  00000-0  15021-3 0  9999
2 18422  82.5097 325.8201 0019876  29.1989 331.0333 14.84119496976724
Epoch (UTC): 20 May 2024 12:13:57
Eccentricity: 0.0019876
inclination: 82.5097°
perigee height: 602 km
apogee height: 630 km
right ascension of ascending node: 325.8201°
argument of perigee: 29.1989°
revolutions per day: 14.84119496
mean anomaly at epoch: 331.0333°
orbit number at epoch: 97672

The dashed part of the orbit path shows where the satellite is in the earth's shadow,  

DLR